Tracking 18624 objects as of 29-April-2017
HD Live streaming from Space Station
objects crossing your sky now

ANNA 1B

Track ANNA 1B now!
10-day predictions
ANNA 1B is classified as:


NORAD ID: 446
Int'l Code: 1962-060A
Perigee: 1,081.4 km
Apogee: 1,186.9 km
Inclination: 50.1 °
Period: 107.8 minutes
Semi major axis: 7505 km
RCS: 0.8414 m2 (medium)
Launch date: October 31, 1962
Source: United States (US)
Launch site: AIR FORCE EASTERN TEST RANGE (AFETR)
Your satellite tracking list
Your tracking list is empty





NASA's NSSDC Master Catalog

Two Line Element Set (TLE):
1   446U 62060A   17117.67026076 -.00000124 +00000-0 +38758-5 0  9993
2   446 050.1417 177.4721 0070322 189.9074 311.0540 13.35258412658192
Source of the keplerian elements: AFSPC